Weather History for Rome, NY

Change the Weather History Date:

Sunday, November 10, 2013

  Actual Average Record
Temperature  
Mean Temperature 41 °F -  
Max Temperature 45 °F 46 °F 59 °F (1984)
Min Temperature 37 °F 31 °F 15 °F (1991)
Degree Days  
Heating Degree Days 24    
Moisture  
Dew Point 35 °F    
Average Humidity 79    
Maximum Humidity 89    
Minimum Humidity 63    
Precipitation  
Precipitation 0.22 in - - ()
Sea Level Pressure  
Sea Level Pressure 29.87 in    
Wind  
Wind Speed 11 mph (West)    
Max Wind Speed 25 mph    
Max Gust Speed 40 mph    
Visibility 10 miles    
Events Rain    
Averages and records for this station are not official NWS values.
T = Trace of Precipitation, MM = Missing Value Source: NWS Daily Summary

Daily Weather History Graph

Daily Weather History Graph

Search for Another Location

Airport:

Trip Planner

Search our weather history database for the weather conditions in past years. The results will help you decide how hot, cold, wet, or windy it might be!

Date:

Astronomy

Nov. 10, 2013 Rise Set
Actual Time 6:48 AM EST 4:42 PM EST
Civil Twilight 6:18 AM EST 5:12 PM EST
Nautical Twilight 5:43 AM EST 5:46 PM EST
Astronomical Twilight 5:10 AM EST 6:20 PM EST
Moon 12:56 PM EST (11/10) No Moon Set
Length of Visible Light 10h 54m
Length of Day
9h 53m
First Quarter, 55% of the Moon is Illuminated
Nov 10
First Quarter
Nov 17
Full
Nov 25
Last Quarter
Dec 2
New
Dec 9
First Quarter

Hourly Weather History & Observations

Time (EST) Temp. Windchill Dew Point Humidity Pressure Visibility Wind Dir Wind Speed Gust Speed Precip Events Conditions
12:53 AM 41.0 °F 34.3 °F 35.1 °F 79% 29.83 in 10.0 mi East 11.5 mph - 0.02 in Rain Light Rain
1:53 AM 41.0 °F 36.4 °F 35.1 °F 79% 29.83 in 10.0 mi East 6.9 mph - 0.00 in   Overcast
2:53 AM 39.9 °F 37.8 °F 35.1 °F 83% 29.82 in 10.0 mi ESE 3.5 mph - N/A   Overcast
3:53 AM 39.9 °F 35.1 °F 34.0 °F 79% 29.80 in 10.0 mi East 6.9 mph - 0.00 in Rain Light Rain
4:53 AM 41.0 °F 39.0 °F 35.1 °F 79% 29.81 in 6.0 mi Variable 3.5 mph - 0.02 in Rain Rain
5:53 AM 39.9 °F - 37.0 °F 89% 29.81 in 10.0 mi Calm Calm - 0.01 in   Overcast
6:53 AM 42.1 °F 39.2 °F 37.9 °F 85% 29.82 in 10.0 mi WSW 4.6 mph - N/A   Overcast
7:53 AM 41.0 °F 39.0 °F 37.9 °F 89% 29.81 in 10.0 mi East 3.5 mph - 0.00 in   Overcast
8:53 AM 43.0 °F 36.8 °F 37.9 °F 82% 29.82 in 10.0 mi WSW 11.5 mph - 0.01 in Rain Light Rain
9:53 AM 43.0 °F 37.7 °F 37.9 °F 82% 29.81 in 10.0 mi West 9.2 mph - 0.03 in Rain Light Rain
10:28 AM 42.1 °F 37.7 °F 39.0 °F 89% 29.81 in 8.0 mi West 6.9 mph - 0.01 in Rain Light Rain
10:50 AM 42.8 °F 36.2 °F 37.4 °F 81% 29.81 in 10.0 mi West 12.7 mph - 0.01 in   Overcast
10:53 AM 43.0 °F 37.2 °F 37.0 °F 80% 29.81 in 10.0 mi West 10.4 mph - 0.01 in Rain Light Rain
11:53 AM 45.0 °F 40.1 °F 37.0 °F 74% 29.81 in 10.0 mi West 9.2 mph - 0.00 in   Overcast
12:53 PM 45.0 °F 38.2 °F 33.1 °F 63% 29.81 in 10.0 mi West 15.0 mph 28.8 mph N/A   Overcast
1:53 PM 42.1 °F 33.9 °F 35.1 °F 76% 29.83 in 9.0 mi West 17.3 mph 28.8 mph 0.01 in Rain Light Rain
2:15 PM 43.0 °F 36.4 °F 36.0 °F 76% 29.82 in 10.0 mi West 12.7 mph - 0.00 in Rain Light Rain
2:46 PM 43.0 °F 36.4 °F 36.0 °F 76% 29.82 in 10.0 mi West 12.7 mph 24.2 mph 0.01 in Rain Light Rain
2:53 PM 43.0 °F 34.8 °F 36.0 °F 76% 29.83 in 10.0 mi West 18.4 mph 26.5 mph 0.01 in Rain Light Rain
3:53 PM 42.1 °F 34.2 °F 37.0 °F 82% 29.85 in 9.0 mi WNW 16.1 mph 20.7 mph 0.01 in Rain Light Rain
4:09 PM 42.1 °F 34.5 °F 35.1 °F 76% 29.84 in 10.0 mi West 15.0 mph 25.3 mph 0.00 in   Overcast
4:53 PM 43.0 °F 36.4 °F 35.1 °F 74% 29.86 in 9.0 mi WNW 12.7 mph - 0.01 in Rain Light Rain
5:00 PM 42.1 °F 32.1 °F 35.1 °F 76% 29.86 in 9.0 mi West 25.3 mph 40.3 mph 0.00 in Rain Light Rain
5:53 PM 39.9 °F 31.4 °F 36.0 °F 86% 29.90 in 6.0 mi WNW 16.1 mph 28.8 mph 0.05 in Rain Light Rain
6:03 PM 39.9 °F 31.4 °F 36.0 °F 86% 29.90 in 10.0 mi West 16.1 mph 25.3 mph 0.00 in Rain Light Rain
6:22 PM 39.0 °F 29.6 °F 35.1 °F 86% 29.90 in 10.0 mi West 18.4 mph 29.9 mph 0.00 in Rain Light Rain
6:53 PM 39.0 °F 29.9 °F 35.1 °F 86% 29.93 in 10.0 mi WNW 17.3 mph 25.3 mph 0.02 in Rain Light Rain
7:30 PM 37.9 °F 27.6 °F 34.0 °F 86% 29.94 in 10.0 mi WNW 20.7 mph 28.8 mph 0.01 in   Overcast
7:53 PM 37.9 °F 27.9 °F 32.0 °F 79% 29.96 in 10.0 mi WNW 19.6 mph 31.1 mph 0.01 in   Overcast
8:53 PM 37.9 °F 29.2 °F 28.9 °F 70% 30.00 in 10.0 mi WNW 15.0 mph 26.5 mph N/A   Overcast
9:53 PM 39.0 °F 28.5 °F 28.9 °F 67% 30.03 in 10.0 mi West 23.0 mph 31.1 mph N/A   Overcast
10:53 PM 39.0 °F 29.6 °F 28.0 °F 65% 30.05 in 10.0 mi WNW 18.4 mph 28.8 mph N/A   Overcast
11:53 PM 37.9 °F 28.2 °F 28.0 °F 68% 30.08 in 10.0 mi WNW 18.4 mph - N/A   Overcast